Tracking 28790 objects as of 19-Apr-2024
HD Live streaming from Space Station
objects crossing your sky now

STARLINK-3148

Track STARLINK-3148 now!
10-day predictions
STARLINK-3148 is classified as:


NORAD ID: 49736
Int'l Code: 2021-115N
Perigee: 545.6 km
Apogee: 548.3 km
Inclination: 53.2 °
Period: 95.4 minutes
Semi major axis: 6917 km
RCS: Unknown
Launch date: December 2, 2021
Source: United States (US)
Launch site: AIR FORCE EASTERN TEST RANGE (AFETR)
Your satellite tracking list
Your tracking list is empty




NASA's NSSDC Master Catalog

Two Line Element Set (TLE):
1 49736U 21115N   24109.97246156  .00027355  00000-0  17313-2 0  9994
2 49736  53.2173   5.2673 0001974  59.8577 300.2611 15.08815155132522
Source of the keplerian elements: AFSPC